Location: Daouli
(14.8671°N, 3.2030°W)
Time: 02:20:15
(UTC+00:00)

Hubble Space Telescope - Pass Details

Date: 29 October 2020
Orbit: 536 x 540 km, 28.5° (Epoch: 02 December)

Event Time Altitude Azimuth Distance (km) Brightness Sun altitude
Rises 18:58:18 0° 279° (W) 2,664 5.7 -18.1°
Reaches altitude 10° 19:00:52 10° 265° (W) 1,774 4.7 -18.7°
Maximum altitude 19:04:13 24° 210° (SSW) 1,119 2.8 -19.5°
Enters shadow 19:07:17 11° 158° (SSE) 1,685 3.2 -20.3°
